Flag for Germany Weather past 2 weeks in Ansbach, Bavaria, Germany

Now
61 °F

Sunny.


Feels Like: 61 °F
Forecast: 54 / 74 °F
Wind: 9 mph from Northeast

Location: Ansbach / Katterbach

Current Time: Jul 24, 2014 at 9:10:26 AM

Latest Report: Jul 24, 2014 at 7:58 AM


Visibility: N/A

Pressure: 29.95 "Hg

Humidity: 72%

Dew point: 52 °F

Location of AnsbachLocation

Historic Weather in Ansbach — Graph

°F

Ansbach temperature yesterday

Maximum temperature yesterday: 79 °F (at 1:58 PM)
Minimum temperature yesterday: 62 °F (at 5:58 AM)
Average temperature yesterday: 71 °F

Past Weeks' High & Low Weather Summary

 TemperatureHumidityPressure
High87 °F (Jul 19, 5:58 PM)100% (Jul 9, 10:58 PM)30.21 "Hg (Jul 9, 10:58 PM)
Low50 °F (Jul 9, 10:58 PM)29% (Jul 19, 4:58 PM)29.75 "Hg (Jul 9, 6:58 AM)
Average66 °F72%29.98 "Hg
* Reported Jul 9 6:58 AM — Jul 24 6:58 AM, Ansbach, Weather by CustomWeather, © 2014

Note: Actual official high and low records may vary slightly from our data, if they occured in-between our weather recording intervals... More about our weather records

Advertising

Ansbach weather history for previous 24 hours

 ConditionsComfort  
Time TempWeatherWind HumidityBarometerVisibility
6:58 AM
Jul 24
61 °FSunny.9 mph72%29.93 "HgN/A
5:58 AM59 °FClear.9 mph72%29.93 "HgN/A
4:58 AM60 °FPassing clouds.7 mph72%29.93 "HgN/A
3:58 AM62 °FClear.6 mph67%29.93 "HgN/A
2:58 AM64 °FClear.8 mph63%29.93 "HgN/A
1:58 AM64 °FClear.7 mph64%29.96 "HgN/A
12:58 AM67 °FClear.5 mph57%29.96 "HgN/A
11:58 PM
Jul 23
68 °FPassing clouds.5 mph54%29.98 "HgN/A
10:58 PM68 °FClear.6 mph57%29.98 "HgN/A
9:58 PM71 °FSunny.7 mph55%29.98 "HgN/A
8:58 PM72 °FSunny.5 mph61%29.96 "HgN/A
7:58 PM74 °FSunny.3 mph54%29.97 "HgN/A
6:58 PM75 °FSunny.5 mph56%29.97 "HgN/A
5:58 PM76 °FScattered clouds.6 mph44%29.97 "HgN/A
4:58 PM75 °FScattered clouds.7 mph47%29.98 "HgN/A
3:58 PM77 °FScattered clouds.12 mph44%29.98 "HgN/A
2:58 PM77 °FPassing clouds.10 mph47%30.00 "HgN/A
1:58 PM79 °FSunny.10 mph42%30.01 "HgN/A
12:58 PM77 °FBroken clouds.15 mph47%30.02 "HgN/A
11:58 AM75 °FScattered clouds.12 mph55%30.03 "HgN/A
10:58 AM74 °FSunny.9 mph56%30.02 "HgN/A
Weather by CustomWeather, © 2014

See weather overviewHow to use our weather pages